Meteo Giornale » Osservazioni meteo Italia » Genova-Sestri

ore: 04:50 - Osservazioni Meteo Genova-Sestri
Lat. 44° 25' N Lon. 8° 51' E Alt. 2 metri s.l.m.

nuvoloso Europe/Rome

24 °C

Nuvoloso

Temp. 24 Ore

21 °C

27 °C

Est/Sud-Est

14.8 Km/h

Dew point 22 °C

Umidità 88 %

Visibilità  10 Km

Il sole sorge alle ore 05:39

Il sole tramonta alle ore 21:14

Data e Ora Cielo e Fenomeni T °C DP °C Um. % Pres. hPa Vis. km Vento km/h
Oggi h: 04:50 nuvoloso Nuvoloso 24 22 88 1017 10 E/SE 14.8
Oggi h: 04:20 nuvoloso Nuvoloso 24 21 83 1017 10 E/SE 18.5
Oggi h: 03:50 nuvoloso Nuvoloso 24 22 88 1018 10 E/SE 14.8
Oggi h: 03:20 nuvoloso Nuvoloso 24 22 88 1018 10 E/SE 16.7
Oggi h: 02:50 nuvoloso Nuvoloso 25 22 83 1018 10 S/SE 14.8
Oggi h: 02:20 nuvoloso Nuvoloso 25 22 83 1018 10 SE 14.8
Oggi h: 01:50 nuvoloso Nuvoloso 25 22 83 1018 10 S/SE 13
Oggi h: 01:20 nuvoloso Nuvoloso 25 21 78 1018 10 E/SE 13
Oggi h: 00:50 nuvoloso Nuvoloso 25 21 78 1018 10 SE 14.8
Oggi h: 00:20 poco_nuvoloso Poco Nuvoloso 25 21 78 1018 10 SE 14.8
Ieri h: 23:50 poco_nuvoloso Poco Nuvoloso 25 21 78 1018 10 SE 13
Ieri h: 23:20 poco_nuvoloso Poco Nuvoloso 25 21 78 1018 10 E/SE 13
Ieri h: 22:50 poco_nuvoloso Poco Nuvoloso 25 21 78 1018 10 E/SE 11.1
Ieri h: 22:20 nuvoloso Nuvoloso 25 21 78 1018 10 S/SE 7.4
Ieri h: 21:20 molto_nuvoloso Molto Nuvoloso 25 21 78 1018 10 N 5.5
Ieri h: 20:50 molto_nuvoloso Molto Nuvoloso 25 21 78 1017 10 S/SE 7.4
Ieri h: 19:50 nuvoloso Nuvoloso 25 20 73 1017 10 N 5.5
Ieri h: 19:20 nuvoloso Nuvoloso 25 20 73 1017 10 N 5.5
Ieri h: 18:50 nuvoloso Nuvoloso 26 20 69 1018 10 N 5.5
Ieri h: 18:20 molto_nuvoloso Molto Nuvoloso 26 21 73 1017 10 S/SO 9.3
Ieri h: 17:50 molto_nuvoloso Molto Nuvoloso 26 20 69 1018 10 S 7.4
Ieri h: 17:20 molto_nuvoloso Molto Nuvoloso 27 20 65 1018 10 N 5.5
Ieri h: 16:50 nuvoloso Nuvoloso 27 20 65 1018 10 N 5.5
Ieri h: 16:20 nuvoloso Nuvoloso 27 20 65 1018 10 S 7.4
Ieri h: 15:50 nuvoloso Nuvoloso 27 20 65 1018 10 S 7.4
Ieri h: 15:20 nuvoloso Nuvoloso 27 20 65 1018 10 S/SO 7.4
Ieri h: 14:50 nuvoloso Nuvoloso 27 20 65 1018 10 S/SO 7.4
Ieri h: 14:20 nuvoloso Nuvoloso 27 19 61 1019 10 S/SO 9.3
Ieri h: 13:50 nuvoloso Nuvoloso 27 19 61 1019 10 S/SO 7.4
Ieri h: 13:20 poco_nuvoloso Poco Nuvoloso 27 19 61 1019 10 S/SO 7.4
Ieri h: 12:50 sereno Sereno 27 19 61 1019 10 S/SO 9.3
Ieri h: 12:20 sereno Sereno 27 19 61 1019 10 S/SO 9.3
Ieri h: 11:50 sereno Sereno 27 19 61 1019 10 SO 9.3
Ieri h: 11:20 sereno Sereno 27 19 61 1019 10 S/SO 7.4
Ieri h: 10:50 sereno Sereno 26 19 65 1019 10 S/SO 7.4
Ieri h: 10:20 sereno Sereno 26 19 65 1019 10 N 7.4
Ieri h: 09:50 sereno Sereno 26 18 61 1018 10 N 5.5
Ieri h: 09:20 sereno Sereno 26 18 61 1019 10 N 5.5
Ieri h: 08:50 sereno Sereno 25 16 57 1018 10 N 5.5
Ieri h: 08:20 sereno Sereno 25 16 57 1018 10 N 3.7
Ieri h: 07:50 sereno Sereno 23 15 60 1018 10 N 7.4
Ieri h: 07:20 sereno Sereno 23 15 60 1018 10 N/NE 7.4
Ieri h: 06:50 sereno Sereno 22 15 64 1018 10 N/NE 9.3
Ieri h: 06:20 sereno Sereno 21 15 68 1018 10 N/NE 9.3
Ieri h: 05:50 sereno Sereno 21 15 68 1017 10 N 9.3